Location: Baili�vre
(50.0696°N, 4.2409°E)
Time: 08:16:15
(UTC+00:00)

Cosmos 1570 Rocket - Pass Details

Date: 08 August 2020
Orbit: 762 x 789 km, 74.1° (Epoch: 20 September)

Event Time Altitude Azimuth Distance (km) Brightness Sun altitude
Rises 21:43:24 0° 338° (NNW) 3,268 8.9 -18.6°
Reaches altitude 10° 21:45:50 10° 342° (NNW) 2,340 7.7 -18.8°
Maximum altitude 21:51:06 60° 62° (ENE) 897 4.3 -19.2°
Enters shadow 21:53:12 35° 126° (SE) 1,246 4.6 -19.4°
